Temperature
4 4 4 4 4 4 5 5 5 5 5 5 5 5 5 5 5 5 5 5 5 5 5 5 5 5 5 5 4 4 4 4 4 4 4 4 4 4 4 4 4 4 4
3 3 3 4 4 4 4 4 4 4 5 5 5 5 5 5 5 5 5 5 5 5 5 5 5 4 4 4 4 4 4 4 4 3 3 3 3 3 3 3 3 3 3
3 3 3 3 3 3 3 4 4 4 4 4 4 4 4 4 4 4 4 4 4 4 4 4 4 4 4 4 4 4 3 3 3 3 3 3 3 3 3 3 3 3 3
2 2 2 2 3 3 3 3 3 3 4 4 4 4 4 4 4 4 4 4 4 4 4 4 4 4 4 3 3 3 3 3 3 3 3 2 2 2 2 2 2 3 3
1 1 2 2 2 2 2 2 2 3 3 3 3 3 3 3 3 3 3 3 3 3 3 3 3 3 3 3 3 3 3 3 2 2 2 2 2 2 2 2 2 2 2
0 1 1 1 1 1 1 2 2 2 2 2 2 3 3 3 3 3 3 3 3 3 3 3 3 3 3 2 2 2 2 2 2 2 2 2 2 2 2 1 1 1 1
-1 -0 0 0 1 1 1 1 1 1 1 2 2 2 2 2 2 2 2 2 2 2 2 2 2 2 2 2 2 2 2 2 2 2 2 2 2 1 1 1 1 1 1
-1 -1 -1 -0 -0 -0 0 0 0 1 1 1 1 1 1 2 2 2 1 1 2 2 2 1 1 1 2 2 2 2 1 1 1 1 1 1 1 1 1 1 0 0 0
-2 -1 -1 -1 -1 -1 -1 -0 -0 -0 0 0 0 1 1 1 1 1 1 1 1 1 1 1 1 1 1 1 1 1 1 1 1 1 0 0 0 0 0 -0 -0 -0 -0
-2 -2 -2 -1 -1 -1 -1 -1 -1 -1 -0 -0 -0 -0 0 0 0 0 0 0 0 0 0 0 1 1 1 1 1 1 1 1 0 0 -0 -0 -0 -0 -0 -1 -1 -1 -1
-3 -2 -2 -2 -2 -2 -2 -1 -1 -1 -1 -1 -1 -1 -1 -0 -0 -0 -0 -0 -0 -0 -0 0 0 0 0 0 0 0 0 0 -0 -0 -0 -1 -1 -1 -1 -1 -1 -1 -2
-3 -3 -3 -2 -2 -2 -2 -2 -2 -2 -2 -2 -1 -1 -1 -1 -1 -1 -1 -1 -1 -1 -0 -0 -0 -0 -0 -0 -0 -0 -0 -1 -1 -1 -1 -1 -1 -1 -1 -2 -2 -2 -2
-4 -4 -3 -3 -3 -3 -3 -3 -3 -3 -3 -2 -2 -2 -2 -2 -2 -2 -2 -1 -1 -1 -1 -1 -1 -1 -1 -1 -1 -1 -1 -1 -1 -1 -1 -1 -2 -2 -2 -2 -2 -2 -2
-4 -4 -4 -4 -3 -3 -3 -3 -3 -3 -3 -3 -3 -3 -3 -2 -2 -2 -2 -2 -2 -2 -2 -2 -2 -2 -2 -1 -2 -2 -2 -2 -2 -2 -2 -2 -2 -2 -3 -3 -3 -3 -3
-5 -5 -4 -4 -4 -4 -4 -4 -4 -4 -4 -3 -3 -3 -3 -3 -3 -3 -2 -2 -2 -2 -2 -2 -2 -2 -2 -2 -2 -2 -3 -3 -3 -3 -3 -3 -3 -3 -3 -3 -3 -4 -4
-5 -5 -5 -5 -5 -5 -5 -5 -4 -4 -4 -4 -4 -4 -4 -3 -3 -3 -3 -3 -3 -3 -3 -3 -3 -3 -3 -3 -3 -3 -3 -3 -3 -3 -3 -4 -4 -4 -4 -4 -4 -4 -4
-6 -6 -6 -6 -6 -6 -6 -5 -5 -5 -5 -4 -4 -4 -4 -4 -3 -3 -3 -3 -3 -3 -3 -3 -3 -3 -3 -4 -4 -4 -4 -4 -4 -4 -4 -4 -4 -4 -4 -4 -4 -5 -5
-6 -6 -6 -6 -6 -6 -6 -6 -6 -6 -5 -5 -4 -4 -4 -4 -4 -4 -4 -4 -4 -4 -4 -4 -4 -4 -4 -4 -4 -4 -4 -4 -4 -4 -4 -4 -4 -4 -4 -5 -5 -5 -5
-7 -7 -7 -7 -7 -6 -6 -6 -6 -6 -6 -6 -5 -5 -5 -4 -4 -4 -4 -4 -4 -4 -4 -4 -4 -4 -5 -5 -5 -5 -5 -5 -5 -5 -5 -5 -5 -5 -5 -5 -5 -5 -6
-7 -7 -7 -7 -7 -7 -7 -7 -7 -7 -7 -6 -6 -5 -5 -5 -5 -5 -5 -5 -5 -5 -5 -4 -5 -5 -5 -5 -5 -5 -5 -5 -5 -5 -5 -5 -5 -5 -5 -5 -6 -6 -6
-8 -8 -8 -8 -7 -7 -7 -7 -7 -7 -7 -7 -6 -6 -6 -6 -5 -5 -5 -5 -5 -5 -5 -5 -5 -5 -5 -5 -5 -5 -5 -5 -5 -5 -5 -6 -6 -6 -6 -6 -6 -6 -6
-8 -8 -8 -8 -8 -8 -8 -7 -7 -7 -7 -7 -7 -6 -6 -6 -6 -6 -6 -5 -5 -5 -5 -5 -5 -5 -5 -5 -5 -5 -5 -5 -5 -6 -6 -6 -6 -6 -6 -6 -6 -7 -7
-9 -9 -8 -8 -8 -8 -8 -8 -8 -8 -8 -7 -7 -7 -7 -6 -6 -6 -6 -6 -6 -6 -5 -5 -5 -5 -5 -5 -5 -5 -5 -5 -6 -6 -6 -6 -6 -6 -6 -7 -7 -7 -7
-9 -9 -9 -9 -8 -8 -8 -8 -8 -8 -8 -8 -8 -7 -7 -7 -7 -6 -6 -6 -6 -6 -6 -6 -6 -6 -6 -6 -6 -6 -6 -6 -6 -6 -6 -6 -7 -7 -7 -7 -7 -7 -7
-9 -9 -9 -9 -9 -9 -9 -9 -9 -8 -8 -8 -8 -8 -7 -7 -7 -7 -7 -7 -7 -6 -6 -6 -6 -6 -6 -6 -6 -6 -6 -6 -6 -6 -7 -7 -7 -7 -7 -7 -7 -7 -8
-10 -10 -9 -9 -9 -9 -9 -9 -9 -9 -9 -8 -8 -8 -8 -8 -7 -7 -7 -7 -7 -7 -7 -7 -7 -7 -7 -7 -6 -6 -6 -6 -7 -7 -7 -7 -7 -7 -7 -7 -8 -8 -8
Wind_Speed
1 1 1 1 1 1 2 2 2 2 2 3 3 4 4 4 4 4 4 5 5 4 4 4 4 3 3 3 2 2 2 2 3 2 1 1 1 1 1 2 2 2 3
2 1 1 1 1 1 2 2 2 2 2 2 3 3 4 4 4 4 4 5 5 5 5 4 4 3 3 3 3 3 3 3 3 2 1 1 2 2 1 1 2 2 3
4 2 2 2 2 2 2 2 2 2 2 2 2 3 3 4 4 4 4 4 4 5 5 5 5 5 4 3 3 3 3 2 2 3 2 1 1 1 1 1 1 2 3
4 3 2 2 2 2 2 2 2 2 2 2 2 2 3 3 3 3 4 3 4 4 4 5 5 6 6 5 4 4 3 3 3 3 2 2 1 1 1 1 2 2 2
5 3 3 2 1 1 1 1 1 2 2 2 2 2 2 3 3 4 4 4 4 4 3 4 4 5 6 5 5 5 5 4 3 3 3 2 3 2 3 2 2 1 2
5 4 3 2 1 1 1 1 1 1 2 2 2 2 2 3 4 5 4 4 4 4 4 3 3 4 5 6 6 6 7 6 5 4 4 4 4 3 3 2 2 1 2
5 5 3 2 2 1 1 1 1 2 2 2 2 2 3 3 5 6 6 4 4 4 4 4 3 4 4 4 4 4 4 6 7 5 5 5 5 4 3 3 2 2 3
5 5 4 3 2 2 1 1 2 2 2 2 2 2 2 3 5 5 6 4 4 4 4 4 4 4 4 5 4 3 2 2 4 3 4 4 3 3 3 3 3 1 1
5 5 4 4 3 2 2 2 2 2 2 2 2 2 3 3 5 5 5 3 3 4 4 4 4 4 6 6 5 4 3 2 2 3 3 3 3 3 3 2 2 1 3
5 4 4 4 3 3 2 2 2 2 2 2 2 2 3 3 4 5 4 3 3 3 3 3 5 5 6 6 5 5 5 4 3 2 1 1 1 2 2 2 3 3 2
5 4 4 3 4 3 3 2 2 2 2 2 2 2 3 3 4 5 5 3 4 3 3 3 3 6 6 6 5 5 6 4 3 3 2 1 1 1 1 1 2 3 3
4 4 3 3 3 3 2 2 2 2 2 2 2 2 2 2 3 4 5 5 4 3 3 3 3 5 5 5 4 5 5 4 3 3 2 2 2 2 1 1 1 1 1
4 4 3 3 3 3 3 3 2 2 2 2 2 2 2 2 2 4 5 5 4 3 3 3 4 4 4 4 5 6 5 3 3 3 3 3 2 2 1 1 1 2 1
4 4 3 3 3 3 3 3 2 2 3 2 3 3 3 2 2 2 2 2 3 2 2 3 3 4 3 4 4 4 3 3 4 3 3 2 1 1 2 2 2 1 1
4 4 3 3 3 3 3 3 3 3 4 4 4 4 4 4 5 5 3 3 3 3 2 2 2 2 3 2 2 3 3 3 3 3 3 3 2 2 2 1 1 1 2
4 3 3 3 3 3 3 4 4 4 5 6 6 5 5 6 6 6 6 5 5 4 2 3 3 4 4 4 4 3 3 3 3 3 3 3 3 3 2 1 2 2 2
4 4 3 3 3 3 3 3 3 4 5 5 5 6 6 6 6 6 6 6 6 5 3 4 4 4 4 4 4 4 3 3 3 3 3 3 3 3 2 2 2 2 2
4 4 4 3 3 3 3 3 3 3 3 3 4 4 5 5 6 6 6 4 4 3 3 4 4 4 4 4 4 3 3 3 3 3 3 3 3 3 3 3 3 3 2
4 3 3 3 3 3 3 3 3 3 3 3 2 2 3 3 3 5 5 3 4 3 3 3 3 3 3 4 4 4 4 4 4 3 3 3 3 3 3 3 3 3 2
3 5 4 3 2 2 2 2 2 2 2 2 2 2 1 1 1 2 2 3 3 3 3 3 3 3 3 4 4 4 4 4 4 4 3 3 3 3 3 3 3 2 2
3 3 5 3 2 2 2 2 2 2 2 3 2 2 3 1 2 2 2 2 2 3 3 3 3 3 3 3 4 5 5 4 4 4 4 4 3 3 2 2 2 2 2
3 3 3 3 2 2 2 2 2 2 2 3 2 2 2 1 1 1 1 1 1 1 2 2 2 2 3 3 4 5 5 5 5 5 4 4 3 3 3 2 2 2 2
2 3 3 3 2 3 3 2 2 2 2 3 2 2 1 1 1 1 1 1 0 0 1 1 1 1 2 3 4 5 5 5 5 5 5 4 4 3 3 3 3 3 3
2 3 3 2 2 2 2 2 2 2 2 3 2 2 1 1 1 1 1 0 0 0 1 1 2 2 2 2 3 4 5 6 6 7 7 6 5 4 3 3 3 3 3
2 2 2 2 2 2 2 2 2 2 3 3 2 2 2 1 1 1 1 1 1 1 0 0 1 2 3 3 3 4 5 6 6 7 7 6 5 4 4 4 3 3 2
2 2 2 2 2 2 2 2 2 3 2 2 2 2 2 2 1 1 1 1 1 1 1 0 0 1 2 2 3 4 4 5 6 7 6 6 5 4 4 3 3 3 3
Wind_Direction
280 254 252 256 222 196 191 197 204 206 196 193 195 196 195 200 201 196 200 193 193 196 194 192 199 192 189 195 201 204 203 188 228 266 251 177 179 198 213 209 219 237 250
310 263 231 247 228 208 211 209 203 205 207 200 202 201 199 202 203 197 202 201 195 196 196 191 196 195 192 193 197 199 201 194 198 234 244 212 209 203 196 195 218 238 240
326 288 237 226 222 217 219 217 212 207 206 204 205 209 206 203 202 202 200 204 197 196 194 194 195 190 197 195 196 199 202 200 182 197 228 227 223 216 205 263 231 233 255
326 309 282 251 235 221 219 222 215 205 203 206 212 217 214 210 203 200 196 196 198 198 199 198 198 198 199 196 200 197 190 183 178 186 204 215 219 224 191 224 257 257 263
327 312 303 301 279 244 224 219 213 213 217 208 215 227 222 219 206 196 195 195 194 193 197 200 202 202 207 210 208 195 186 187 186 192 205 216 221 212 222 223 227 253 269
328 311 309 312 302 262 236 237 219 214 217 215 214 220 230 232 214 215 212 195 190 194 200 203 199 196 206 211 211 208 202 197 196 203 214 215 223 218 207 205 207 236 269
330 322 320 315 324 311 282 268 244 234 225 224 223 216 228 226 223 224 225 208 195 199 201 200 206 200 200 187 192 199 210 215 213 210 211 222 223 216 205 212 213 224 243
325 322 326 327 320 315 315 287 272 257 235 229 232 220 226 230 225 226 223 213 200 204 210 203 195 194 195 183 174 176 194 211 216 212 210 220 222 211 207 214 209 214 277
323 320 323 323 311 303 292 284 282 274 260 239 229 219 227 234 227 227 225 198 196 205 209 205 195 191 192 186 175 177 185 203 194 189 202 199 200 207 194 181 188 211 260
318 318 319 320 309 290 282 279 280 271 266 254 244 229 227 235 234 225 219 193 195 205 205 206 207 203 199 195 189 186 194 205 184 184 193 200 173 176 193 197 199 208 232
316 317 314 311 304 290 286 282 272 267 261 251 245 248 239 238 243 230 217 204 200 201 207 214 208 200 204 203 199 199 201 196 186 179 182 183 159 154 164 157 183 206 216
314 314 310 308 306 300 289 281 268 251 247 246 240 252 250 245 245 232 219 217 217 209 212 213 208 200 200 196 192 182 180 173 165 169 178 193 195 201 202 124 130 142 189
315 313 308 311 307 297 283 272 265 249 240 243 234 242 249 245 234 229 219 213 217 225 216 209 209 196 182 183 184 182 179 178 171 176 191 204 204 199 173 129 101 95 56
311 312 309 309 307 303 292 278 264 245 242 242 240 242 244 242 237 228 215 209 197 202 197 187 190 186 185 185 181 181 183 186 186 189 189 188 177 177 194 207 219 228 268
306 305 304 305 298 297 298 287 277 265 248 244 241 237 230 235 236 231 225 219 205 201 186 181 194 188 186 185 176 172 176 179 183 184 181 185 189 196 213 216 222 223 233
304 302 301 303 301 301 304 311 306 290 289 276 264 257 250 241 235 230 229 222 212 196 196 193 202 203 196 191 184 180 186 192 192 188 188 191 197 203 208 217 212 212 228
299 298 300 299 296 295 294 298 309 315 307 296 279 268 256 240 229 223 218 215 212 203 208 200 206 206 200 195 193 193 195 195 190 186 187 189 195 202 204 210 217 228 241
307 300 299 290 287 285 284 284 285 290 301 309 298 278 261 241 228 216 207 204 212 220 212 204 205 204 200 198 198 197 191 184 186 188 188 192 195 197 200 207 216 227 239
309 305 304 298 292 288 288 290 290 289 289 297 303 291 270 242 225 211 200 203 204 212 217 212 206 202 204 199 195 193 189 189 190 191 194 196 198 197 208 216 218 222 237
309 307 311 299 293 294 299 298 296 291 286 285 282 276 269 264 219 216 214 207 206 211 214 212 207 203 202 198 192 190 191 192 192 195 197 200 203 204 209 215 218 224 235
310 306 312 307 297 293 294 294 292 292 289 288 287 278 266 242 224 228 231 221 214 214 209 206 202 199 199 194 192 192 192 195 195 195 195 198 199 206 212 217 222 226 233
309 305 299 296 298 297 299 298 292 293 303 303 310 310 288 272 240 248 250 249 239 231 208 194 197 202 199 197 191 189 191 194 194 193 193 192 193 199 205 211 220 230 232
311 307 305 304 303 300 308 309 306 300 301 305 310 321 319 324 292 275 262 257 267 222 164 168 184 197 188 189 189 188 193 196 194 187 185 187 190 195 201 212 216 225 236
312 305 301 301 309 315 311 310 311 315 317 317 319 320 321 328 330 322 312 293 85 91 158 179 186 189 187 190 195 196 195 192 187 184 183 186 191 197 204 213 217 223 233
313 306 302 302 306 309 311 314 315 318 318 320 324 327 332 341 343 341 359 36 50 54 40 184 190 188 188 193 200 198 194 189 189 185 183 183 187 197 205 212 215 220 234
324 318 314 314 313 309 306 308 313 315 316 321 323 325 330 345 350 348 4 33 36 48 53 52 99 180 192 194 189 183 182 183 184 184 182 182 186 198 200 208 207 212 217
Height
1472 1472 1473 1474 1475 1476 1477 1478 1479 1480 1482 1483 1484 1485 1486 1487 1488 1490 1491 1492 1494 1495 1497 1498 1499 1501 1502 1503 1504 1505 1507 1508 1507 1507 1509 1510 1511 1512 1512 1513 1513 1514 1514
1469 1469 1470 1470 1471 1472 1473 1474 1475 1476 1478 1479 1480 1481 1482 1483 1484 1485 1486 1488 1489 1491 1492 1493 1495 1496 1497 1498 1499 1501 1502 1503 1504 1503 1504 1506 1507 1508 1508 1509 1510 1510 1510
1466 1466 1466 1467 1468 1468 1469 1471 1472 1473 1474 1475 1476 1476 1477 1478 1479 1480 1482 1483 1484 1486 1487 1489 1490 1491 1492 1493 1495 1496 1497 1498 1500 1500 1500 1502 1503 1504 1504 1505 1506 1506 1506
1463 1463 1463 1463 1464 1465 1466 1467 1467 1468 1469 1470 1471 1472 1473 1474 1475 1476 1477 1478 1480 1481 1483 1484 1485 1486 1487 1489 1490 1491 1492 1494 1495 1496 1497 1497 1498 1499 1500 1501 1501 1502 1502
1460 1460 1460 1460 1461 1461 1462 1463 1463 1464 1465 1466 1467 1468 1469 1470 1471 1472 1473 1474 1475 1476 1478 1479 1480 1482 1483 1485 1486 1487 1488 1489 1490 1491 1492 1493 1494 1495 1496 1497 1497 1497 1498
1458 1458 1457 1457 1457 1458 1458 1459 1459 1460 1461 1462 1463 1464 1465 1466 1467 1468 1469 1470 1471 1472 1473 1474 1476 1477 1478 1480 1481 1483 1484 1485 1486 1487 1488 1489 1490 1491 1492 1493 1493 1493 1493
1455 1455 1454 1454 1454 1454 1455 1455 1455 1456 1457 1457 1458 1459 1460 1461 1462 1464 1465 1466 1466 1467 1468 1470 1471 1472 1474 1476 1477 1478 1480 1481 1483 1484 1484 1484 1486 1487 1488 1488 1489 1489 1489
1453 1452 1451 1451 1450 1450 1451 1451 1452 1452 1453 1453 1454 1455 1456 1457 1458 1459 1460 1461 1462 1463 1464 1465 1467 1468 1470 1472 1473 1474 1475 1476 1478 1479 1480 1481 1482 1483 1484 1485 1485 1485 1485
1450 1449 1449 1448 1447 1447 1447 1447 1448 1448 1449 1449 1450 1450 1451 1452 1453 1455 1456 1456 1457 1458 1459 1461 1463 1464 1466 1467 1469 1469 1470 1471 1473 1474 1476 1477 1477 1478 1479 1480 1480 1480 1480
1446 1446 1445 1445 1444 1444 1443 1443 1444 1444 1445 1445 1446 1446 1447 1448 1449 1450 1451 1452 1452 1454 1455 1456 1458 1460 1461 1463 1464 1465 1465 1466 1468 1469 1470 1471 1472 1473 1474 1475 1476 1476 1475
1443 1442 1442 1441 1441 1440 1440 1440 1440 1440 1441 1441 1442 1442 1443 1444 1444 1445 1447 1448 1448 1449 1450 1452 1453 1455 1456 1458 1459 1460 1461 1462 1463 1464 1465 1466 1468 1468 1469 1470 1471 1472 1472
1439 1439 1438 1438 1437 1437 1437 1436 1436 1437 1437 1437 1437 1438 1439 1439 1440 1441 1442 1444 1445 1446 1446 1448 1449 1450 1452 1453 1454 1455 1456 1458 1459 1460 1461 1461 1462 1464 1465 1466 1466 1467 1467
1436 1435 1434 1434 1433 1433 1433 1433 1433 1433 1433 1433 1433 1434 1434 1435 1436 1437 1438 1439 1441 1442 1442 1444 1445 1446 1447 1448 1449 1451 1452 1453 1454 1455 1456 1457 1458 1459 1460 1461 1461 1462 1462
1432 1431 1431 1430 1429 1430 1430 1429 1429 1429 1429 1429 1430 1430 1430 1431 1432 1433 1434 1435 1436 1437 1438 1439 1440 1441 1443 1444 1445 1446 1447 1449 1450 1450 1451 1453 1454 1455 1456 1456 1457 1457 1457
1429 1428 1427 1427 1426 1425 1425 1426 1426 1426 1426 1426 1426 1427 1427 1426 1428 1429 1430 1431 1432 1433 1434 1435 1436 1436 1437 1439 1440 1441 1443 1444 1445 1446 1447 1448 1449 1450 1451 1452 1453 1453 1453
1426 1425 1424 1423 1423 1422 1422 1421 1421 1422 1422 1422 1422 1423 1422 1423 1424 1425 1426 1427 1428 1429 1430 1430 1431 1432 1433 1434 1436 1437 1438 1439 1440 1442 1443 1444 1445 1446 1447 1448 1448 1449 1449
1423 1422 1421 1420 1419 1419 1418 1418 1416 1417 1417 1417 1417 1418 1418 1418 1419 1420 1422 1423 1424 1425 1425 1425 1426 1427 1428 1430 1431 1432 1434 1435 1437 1437 1438 1439 1440 1441 1442 1443 1444 1444 1445
1419 1419 1418 1417 1417 1416 1416 1415 1414 1413 1412 1411 1412 1413 1413 1414 1415 1416 1417 1418 1419 1420 1420 1421 1422 1423 1424 1425 1427 1428 1429 1431 1432 1433 1434 1435 1436 1437 1438 1439 1440 1440 1441
1416 1416 1415 1414 1414 1413 1413 1412 1411 1410 1410 1408 1408 1409 1409 1410 1410 1411 1412 1413 1414 1415 1416 1417 1418 1419 1420 1421 1422 1424 1425 1426 1428 1429 1430 1431 1432 1433 1434 1435 1436 1436 1437
1414 1413 1412 1412 1411 1410 1410 1409 1408 1408 1407 1406 1406 1406 1406 1406 1406 1407 1408 1409 1410 1411 1412 1413 1414 1415 1416 1417 1418 1419 1421 1422 1423 1424 1425 1427 1428 1429 1430 1431 1432 1432 1433
1411 1410 1410 1409 1408 1408 1407 1407 1406 1405 1405 1404 1403 1404 1404 1404 1404 1404 1405 1406 1407 1407 1408 1409 1410 1411 1412 1412 1413 1415 1416 1417 1419 1420 1421 1423 1424 1425 1426 1427 1428 1429 1429
1409 1408 1407 1407 1406 1406 1405 1405 1404 1403 1402 1402 1401 1401 1401 1402 1402 1402 1403 1403 1404 1405 1405 1406 1407 1407 1408 1409 1409 1411 1412 1413 1414 1416 1417 1419 1420 1421 1422 1423 1424 1425 1425
1407 1406 1405 1405 1405 1404 1403 1403 1402 1401 1401 1400 1400 1399 1399 1399 1400 1400 1400 1401 1401 1402 1402 1403 1403 1404 1405 1405 1406 1407 1408 1409 1411 1412 1414 1415 1416 1417 1418 1419 1420 1421 1421
1405 1404 1404 1403 1403 1402 1402 1401 1400 1400 1399 1399 1398 1398 1398 1398 1398 1398 1398 1399 1399 1399 1400 1400 1401 1401 1402 1402 1403 1404 1405 1407 1408 1409 1410 1412 1413 1414 1415 1416 1417 1417 1418
1403 1403 1402 1402 1401 1401 1400 1400 1399 1399 1398 1398 1397 1397 1397 1397 1396 1396 1397 1397 1397 1397 1397 1398 1398 1399 1399 1400 1401 1402 1403 1404 1405 1406 1407 1408 1409 1410 1412 1413 1413 1414 1415
1402 1401 1401 1400 1400 1399 1399 1398 1398 1397 1397 1396 1396 1395 1395 1395 1395 1395 1395 1395 1395 1395 1395 1396 1396 1397 1397 1398 1398 1399 1400 1401 1402 1403 1404 1405 1406 1407 1408 1409 1410 1411 1411